Boonville, MO

7:58 AM CDT on May 25, 2017 (GMT -0500)
Viertel Memorial

Weather History for KVER - April, 2014

Change the Weather History Date:

Friday, April 4, 2014

  Actual Average Record
Temperature  
Mean Temperature 44 °F -  
Max Temperature 64 °F 59 °F 81 °F (1978)
Min Temperature 38 °F 38 °F 20 °F (1975)
Degree Days  
Heating Degree Days 21    
Moisture  
Dew Point 32 °F    
Average Humidity 68    
Maximum Humidity 90    
Minimum Humidity 58    
Precipitation  
Precipitation 0.00 in - - ()
Sea Level Pressure  
Sea Level Pressure 29.96 in    
Wind  
Wind Speed 13 mph (WNW)    
Max Wind Speed 22 mph    
Max Gust Speed 37 mph    
Visibility 10 miles    
Events      
Averages and records for this station are not official NWS values.
T = Trace of Precipitation, MM = Missing Value Source: NWS Daily Summary

Daily Weather History Graph

Daily Weather History Graph

Search for Another Location

Airport or City:

Trip Planner

Search our weather history database for the weather conditions in past years. The results will help you decide how hot, cold, wet, or windy it might be!

Date:

Astronomy

Apr. 04, 2014 Rise Set
Actual Time 6:50 AM CDT 7:37 PM CDT
Civil Twilight 6:23 AM CDT 8:04 PM CDT
Nautical Twilight 5:51 AM CDT 8:36 PM CDT
Astronomical Twilight 5:18 AM CDT 9:09 PM CDT
Moon 10:09 AM CDT (4/4) No Moon Set
Length of Visible Light 13h 40m
Length of Day
12h 46m
Waxing Crescent, 25% of the Moon is Illuminated
Apr 4
Waxing Crescent
Apr 7
First Quarter
Apr 15
Full
Apr 22
Last Quarter
Apr 29
New

Hourly Weather History & Observations

Time (CDT) Temp. Windchill Dew Point Humidity Pressure Visibility Wind Dir Wind Speed Gust Speed Precip Events Conditions
12:15 AM 50.0 °F - 47.3 °F 90% 29.70 in 10.0 mi West 6.9 mph - N/A   Overcast
12:35 AM 50.0 °F - 47.1 °F 90% 29.69 in 10.0 mi West 5.8 mph - N/A   Overcast
12:55 AM 49.6 °F - 46.4 °F 89% 29.68 in 10.0 mi West 10.4 mph 16.1 mph N/A   Overcast
1:15 AM 48.2 °F - 45.0 °F 89% 29.70 in 10.0 mi West 11.5 mph 23.0 mph N/A   Overcast
1:35 AM 46.6 °F - 43.5 °F 89% 29.70 in 10.0 mi West 15.0 mph 24.2 mph N/A   Overcast
1:55 AM 45.9 °F 39.1 °F 42.6 °F 88% 29.71 in 10.0 mi West 16.1 mph 20.7 mph N/A   Overcast
2:15 AM 45.3 °F 38.1 °F 41.5 °F 87% 29.71 in 10.0 mi West 17.3 mph 26.5 mph N/A   Overcast
2:35 AM 44.2 °F 38.0 °F 39.0 °F 82% 29.71 in 10.0 mi West 12.7 mph 27.6 mph N/A   Overcast
2:55 AM 43.3 °F 36.5 °F 36.3 °F 76% 29.72 in 10.0 mi West 13.8 mph 25.3 mph N/A   Overcast
3:15 AM 42.6 °F 35.2 °F 35.6 °F 76% 29.73 in 10.0 mi West 15.0 mph 25.3 mph N/A   Overcast
3:35 AM 41.2 °F 33.0 °F 36.0 °F 82% 29.74 in 10.0 mi WNW 16.1 mph 26.5 mph N/A   Overcast
3:55 AM 40.3 °F 31.6 °F 34.5 °F 80% 29.75 in 7.0 mi West 17.3 mph 36.8 mph N/A   Overcast
4:15 AM 39.7 °F 30.0 °F 32.9 °F 77% 29.76 in 10.0 mi West 20.7 mph 27.6 mph N/A   Overcast
4:35 AM 39.6 °F 32.5 °F 32.0 °F 74% 29.78 in 10.0 mi West 11.5 mph 31.1 mph N/A   Overcast
4:55 AM 39.4 °F 31.8 °F 32.0 °F 75% 29.79 in 10.0 mi West 12.7 mph 25.3 mph N/A   Overcast
5:15 AM 39.2 °F 31.6 °F 32.0 °F 75% 29.82 in 10.0 mi West 12.7 mph 23.0 mph N/A   Overcast
5:35 AM 39.4 °F 30.1 °F 30.7 °F 71% 29.83 in 10.0 mi West 18.4 mph 24.2 mph N/A   Overcast
5:55 AM 39.4 °F 30.7 °F 29.8 °F 69% 29.83 in 10.0 mi WNW 16.1 mph 28.8 mph N/A   Overcast
6:15 AM 39.2 °F 31.2 °F 30.4 °F 71% 29.85 in 10.0 mi West 13.8 mph 26.5 mph N/A   Overcast
6:35 AM 39.2 °F 29.3 °F 29.3 °F 68% 29.85 in 10.0 mi WNW 20.7 mph 34.5 mph N/A   Overcast
6:55 AM 38.8 °F 28.8 °F 29.1 °F 68% 29.86 in 10.0 mi West 20.7 mph 32.2 mph N/A   Overcast
7:15 AM 38.8 °F 30.0 °F 29.7 °F 70% 29.87 in 10.0 mi WNW 16.1 mph 29.9 mph N/A   Overcast
7:35 AM 39.2 °F 30.5 °F 28.9 °F 67% 29.88 in 10.0 mi WNW 16.1 mph 28.8 mph N/A   Overcast
7:55 AM 39.2 °F 29.0 °F 28.2 °F 65% 29.89 in 10.0 mi WNW 21.9 mph 32.2 mph N/A   Overcast
8:15 AM 38.8 °F 28.8 °F 27.9 °F 65% 29.90 in 10.0 mi WNW 20.7 mph 28.8 mph N/A   Overcast
8:35 AM 38.7 °F 29.1 °F 28.4 °F 67% 29.91 in 10.0 mi WNW 18.4 mph 25.3 mph N/A   Overcast
8:55 AM 38.8 °F 30.4 °F 29.1 °F 68% 29.92 in 10.0 mi WNW 15.0 mph 27.6 mph N/A   Overcast
9:15 AM 38.8 °F 28.5 °F 28.8 °F 67% 29.93 in 10.0 mi WNW 21.9 mph 32.2 mph N/A   Overcast
9:35 AM 39.2 °F 29.3 °F 28.4 °F 65% 29.94 in 10.0 mi NW 20.7 mph 32.2 mph N/A   Overcast
9:55 AM 39.4 °F 31.1 °F 28.6 °F 65% 29.95 in 10.0 mi WNW 15.0 mph 24.2 mph N/A   Overcast
10:15 AM 39.7 °F 30.6 °F 29.7 °F 67% 29.96 in 10.0 mi WNW 18.4 mph 26.5 mph N/A   Overcast
10:35 AM 40.1 °F 31.0 °F 30.0 °F 67% 29.98 in 10.0 mi WNW 18.4 mph 28.8 mph N/A   Overcast
10:55 AM 40.5 °F 30.7 °F 30.2 °F 67% 29.98 in 10.0 mi WNW 21.9 mph 27.6 mph N/A   Overcast
11:15 AM 41.4 °F 32.7 °F 29.5 °F 63% 29.99 in 10.0 mi NW 18.4 mph 31.1 mph N/A   Overcast
11:35 AM 41.4 °F 33.0 °F 30.2 °F 65% 30.00 in 10.0 mi WNW 17.3 mph 26.5 mph N/A   Overcast
11:55 AM 41.7 °F 36.7 °F 30.4 °F 64% 30.01 in 10.0 mi WNW 8.1 mph 21.9 mph N/A   Overcast
12:15 PM 42.3 °F 34.8 °F 30.0 °F 62% 30.01 in 10.0 mi WNW 15.0 mph 25.3 mph N/A   Overcast
12:35 PM 42.3 °F 35.5 °F 30.9 °F 64% 30.02 in 10.0 mi West 12.7 mph 23.0 mph N/A   Overcast
12:55 PM 42.4 °F 35.3 °F 30.7 °F 63% 30.03 in 10.0 mi WNW 13.8 mph 23.0 mph N/A   Overcast
1:15 PM 42.3 °F 34.1 °F 31.3 °F 65% 30.03 in 10.0 mi West 17.3 mph 23.0 mph N/A   Overcast
1:55 PM 42.6 °F 35.9 °F 31.5 °F 65% 30.04 in 10.0 mi West 12.7 mph 20.7 mph N/A   Overcast
2:15 PM 43.0 °F 35.1 °F 31.6 °F 64% 30.04 in 10.0 mi WNW 17.3 mph 21.9 mph N/A   Overcast
2:35 PM 43.2 °F 36.2 °F 31.5 °F 63% 30.04 in 10.0 mi WNW 13.8 mph 19.6 mph N/A   Overcast
2:55 PM 43.0 °F 37.7 °F 31.6 °F 64% 30.05 in 10.0 mi WNW 9.2 mph 19.6 mph N/A   Overcast
3:15 PM 43.2 °F 36.6 °F 31.5 °F 63% 30.05 in 10.0 mi WNW 12.7 mph 21.9 mph N/A   Overcast
3:55 PM 43.9 °F 36.5 °F 30.9 °F 60% 30.05 in 10.0 mi WNW 16.1 mph 23.0 mph N/A   Overcast
4:15 PM 43.7 °F 36.9 °F 30.7 °F 60% 30.06 in 10.0 mi West 13.8 mph 19.6 mph N/A   Overcast
4:35 PM 43.7 °F 38.6 °F 31.1 °F 61% 30.06 in 10.0 mi West 9.2 mph 17.3 mph N/A   Overcast
4:55 PM 44.1 °F 37.1 °F 31.1 °F 60% 30.07 in 10.0 mi WNW 15.0 mph 23.0 mph N/A   Overcast
5:15 PM 43.9 °F 37.9 °F 30.9 °F 60% 30.08 in 10.0 mi WNW 11.5 mph 17.3 mph N/A   Overcast
5:35 PM 44.1 °F 39.5 °F 31.5 °F 61% 30.08 in 10.0 mi WNW 8.1 mph 16.1 mph N/A   Overcast
5:55 PM 43.9 °F 39.3 °F 31.6 °F 62% 30.08 in 10.0 mi NW 8.1 mph 16.1 mph N/A   Overcast
6:15 PM 43.7 °F 39.1 °F 31.3 °F 62% 30.09 in 10.0 mi WNW 8.1 mph 17.3 mph N/A   Overcast
6:35 PM 43.7 °F 37.7 °F 30.9 °F 61% 30.10 in 10.0 mi NW 11.5 mph 18.4 mph N/A   Overcast
6:55 PM 43.3 °F 38.1 °F 31.3 °F 62% 30.10 in 10.0 mi WNW 9.2 mph 16.1 mph N/A   Overcast
7:15 PM 43.2 °F 38.4 °F 31.3 °F 63% 30.10 in 10.0 mi WNW 8.1 mph - N/A   Overcast
7:35 PM 43.0 °F 38.2 °F 31.1 °F 63% 30.11 in 10.0 mi NW 8.1 mph - N/A   Overcast
7:55 PM 42.8 °F 38.6 °F 30.9 °F 63% 30.11 in 10.0 mi WNW 6.9 mph 17.3 mph N/A   Overcast
8:15 PM 42.6 °F 39.9 °F 30.7 °F 63% 30.13 in 10.0 mi WNW 4.6 mph - N/A   Overcast
8:35 PM 42.3 °F 37.9 °F 30.7 °F 64% 30.13 in 10.0 mi NW 6.9 mph - N/A   Overcast
8:55 PM 41.9 °F 38.2 °F 30.9 °F 65% 30.14 in 10.0 mi NW 5.8 mph - N/A   Overcast
9:15 PM 41.9 °F 40.0 °F 29.8 °F 62% 30.15 in 10.0 mi NW 3.5 mph - N/A   Overcast
9:35 PM 41.9 °F 39.0 °F 29.5 °F 61% 30.15 in 10.0 mi NNW 4.6 mph - N/A   Overcast
9:55 PM 41.9 °F 36.3 °F 28.8 °F 60% 30.15 in 10.0 mi NNW 9.2 mph - N/A   Overcast
10:15 PM 41.9 °F 39.0 °F 28.2 °F 58% 30.16 in 10.0 mi WNW 4.6 mph - N/A   Overcast
10:35 PM 41.7 °F - 28.2 °F 59% 30.16 in 10.0 mi Calm Calm - N/A   Overcast
10:55 PM 41.5 °F 38.6 °F 28.2 °F 59% 30.16 in 10.0 mi WNW 4.6 mph - N/A   Overcast
11:15 PM 41.0 °F 36.4 °F 28.2 °F 60% 30.17 in 10.0 mi NW 6.9 mph - N/A   Overcast
11:35 PM 41.2 °F 36.6 °F 27.9 °F 59% 30.17 in 10.0 mi WNW 6.9 mph - N/A   Overcast
11:55 PM 41.2 °F 39.2 °F 28.0 °F 60% 30.17 in 10.0 mi WNW 3.5 mph - N/A   Overcast